Back to catalog

SL-16 DEB

AliveSSO
NORAD 27689·DEBRIS·🇷🇺 Russia

Launched Dec 10, 2001 from Baikonur Cosmodrome

Loading…

Next Passes (next 24 hours)

TLE

FreshSource: Space-Track

Epoch: Sep 14, 2026, 07:32 UTC

1 27689U 01056H   26257.31408237  .00000012  00000-0  10834-3 0  9996
2 27689  99.9596 204.0557 0209273  50.6653 102.6360 13.26046022197878

Track SL-16 DEB in real time with AllMySat

Download on the App Store